M I D A S
Marine Information and Data Acquisition System
Tripno 1577 of the Zeeleeuw from 2008-09-30 06:24:46 to 2008-09-30 13:58:00
Back to CruiseResearch ActivitiesStationsMapUnderway DataData graphs

EquipmentUnitsComments
TimeDGPSUTC
LatitudeDGPSDM.mWGS84
LongitudeDGPSDM.mWGS84
SpeedMeteo Stationm/sRelative wind speed
DirectionMeteo StationdegRelative wind direction
TemperatureMeteo Stationdeg CelciusAir temperature
PressureMeteo StationPaAtmospheric pressure
HumidityMeteo Station%Relative humidity
Missing or incorrect values are displayed as -999
Metereological data collected by the RV Zeeleeuw from 2008-09-30 06:24:46 to 2008-09-30 13:58:00
                                                                                    Next 1000 lines
Time Latitude Longitude Speed Direction Temperature Pressure Humidity
2008-09-30 06:25:00 51°13.624 2°56.049 -999 -999 -999 -999 -999
2008-09-30 06:25:10 51°13.624 2°56.049 -999 -999 -999 -999 -999
2008-09-30 06:25:20 51°13.624 2°56.049 -999 -999 -999 -999 -999
2008-09-30 06:25:30 51°13.624 2°56.049 -999 -999 -999 -999 -999
2008-09-30 06:25:40 51°13.623 2°56.049 -999 -999 -999 -999 -999
2008-09-30 06:25:50 51°13.623 2°56.049 -999 -999 -999 -999 -999
2008-09-30 06:26:00 51°13.623 2°56.049 -999 -999 -999 -999 -999
2008-09-30 06:26:10 51°13.622 2°56.049 -999 -999 -999 -999 -999
2008-09-30 06:26:20 51°13.622 2°56.049 -999 -999 -999 -999 -999
2008-09-30 06:26:30 51°13.622 2°56.049 -999 -999 -999 -999 -999
2008-09-30 06:26:40 51°13.622 2°56.048 -999 -999 -999 -999 -999
2008-09-30 06:26:50 51°13.623 2°56.045 -999 -999 -999 -999 -999
2008-09-30 06:27:00 51°13.625 2°56.039 -999 -999 -999 -999 -999
2008-09-30 06:27:10 51°13.628 2°56.03 -999 -999 -999 -999 -999
2008-09-30 06:27:20 51°13.632 2°56.019 -999 -999 -999 -999 -999
2008-09-30 06:27:30 51°13.636 2°56.004 -999 -999 -999 -999 -999
2008-09-30 06:27:40 51°13.64 2°55.991 -999 -999 -999 -999 -999
2008-09-30 06:27:50 51°13.643 2°55.978 -999 -999 -999 -999 -999
2008-09-30 06:28:00 51°13.648 2°55.96 -999 -999 -999 -999 -999
2008-09-30 06:28:10 51°13.654 2°55.944 -999 -999 -999 -999 -999
2008-09-30 06:28:20 51°13.659 2°55.926 -999 -999 -999 -999 -999
2008-09-30 06:28:30 51°13.666 2°55.909 -999 -999 -999 -999 -999
2008-09-30 06:28:40 51°13.67 2°55.891 -999 -999 -999 -999 -999
2008-09-30 06:28:50 51°13.674 2°55.874 -999 -999 -999 -999 -999
2008-09-30 06:29:00 51°13.678 2°55.858 -999 -999 -999 -999 -999
2008-09-30 06:29:10 51°13.683 2°55.842 -999 -999 -999 -999 -999
2008-09-30 06:29:20 51°13.686 2°55.829 -999 -999 -999 -999 -999
2008-09-30 06:29:30 51°13.687 2°55.813 -999 -999 -999 -999 -999
2008-09-30 06:29:40 51°13.688 2°55.8 -999 -999 -999 -999 -999
2008-09-30 06:29:50 51°13.688 2°55.787 -999 -999 -999 -999 -999
2008-09-30 06:30:00 51°13.688 2°55.776 -999 -999 -999 -999 -999
2008-09-30 06:30:10 51°13.688 2°55.767 -999 -999 -999 -999 -999
2008-09-30 06:30:20 51°13.687 2°55.759 -999 -999 -999 -999 -999
2008-09-30 06:30:30 51°13.687 2°55.754 -999 -999 -999 -999 -999
2008-09-30 06:30:40 51°13.687 2°55.751 -999 -999 -999 -999 -999
2008-09-30 06:30:50 51°13.687 2°55.751 -999 -999 -999 -999 -999
2008-09-30 06:31:00 51°13.688 2°55.751 -999 -999 -999 -999 -999
2008-09-30 06:31:10 51°13.69 2°55.752 -999 -999 -999 -999 -999
2008-09-30 06:31:20 51°13.692 2°55.754 -999 -999 -999 -999 -999
2008-09-30 06:31:30 51°13.695 2°55.756 -999 -999 -999 -999 -999
2008-09-30 06:31:40 51°13.699 2°55.758 -999 -999 -999 -999 -999
2008-09-30 06:31:50 51°13.703 2°55.759 -999 -999 -999 -999 -999
2008-09-30 06:32:00 51°13.705 2°55.76 -999 -999 -999 -999 -999
2008-09-30 06:32:10 51°13.705 2°55.76 -999 -999 -999 -999 -999
2008-09-30 06:32:20 51°13.702 2°55.761 -999 -999 -999 -999 -999
2008-09-30 06:32:30 51°13.698 2°55.762 -999 -999 -999 -999 -999
2008-09-30 06:32:40 51°13.696 2°55.763 -999 -999 -999 -999 -999
2008-09-30 06:32:50 51°13.696 2°55.764 -999 -999 -999 -999 -999
2008-09-30 06:33:00 51°13.702 2°55.761 -999 -999 -999 -999 -999
2008-09-30 06:33:10 51°13.709 2°55.756 -999 -999 -999 -999 -999
2008-09-30 06:33:20 51°13.718 2°55.748 -999 -999 -999 -999 -999
2008-09-30 06:33:30 51°13.731 2°55.734 -999 -999 -999 -999 -999
2008-09-30 06:33:40 51°13.745 2°55.72 -999 -999 -999 -999 -999
2008-09-30 06:33:50 51°13.76 2°55.705 -999 -999 -999 -999 -999
2008-09-30 06:34:00 51°13.774 2°55.691 -999 -999 -999 -999 -999
2008-09-30 06:34:10 51°13.791 2°55.675 -999 -999 -999 -999 -999
2008-09-30 06:34:20 51°13.812 2°55.658 -999 -999 -999 -999 -999
2008-09-30 06:34:30 51°13.83 2°55.642 -999 -999 -999 -999 -999
2008-09-30 06:34:40 51°13.848 2°55.628 -999 -999 -999 -999 -999
2008-09-30 06:34:50 51°13.868 2°55.612 -999 -999 -999 -999 -999
2008-09-30 06:35:00 51°13.888 2°55.597 -999 -999 -999 -999 -999
2008-09-30 06:35:10 51°13.91 2°55.578 -999 -999 -999 -999 -999
2008-09-30 06:35:20 51°13.931 2°55.564 -999 -999 -999 -999 -999
2008-09-30 06:35:30 51°13.949 2°55.55 -999 -999 -999 -999 -999
2008-09-30 06:35:40 51°13.972 2°55.533 -999 -999 -999 -999 -999
2008-09-30 06:35:50 51°13.993 2°55.517 -999 -999 -999 -999 -999
2008-09-30 06:36:00 51°14.012 2°55.503 -999 -999 -999 -999 -999
2008-09-30 06:36:10 51°14.033 2°55.488 -999 -999 -999 -999 -999
2008-09-30 06:36:20 51°14.055 2°55.47 -999 -999 -999 -999 -999
2008-09-30 06:36:30 51°14.076 2°55.454 -999 -999 -999 -999 -999
2008-09-30 06:36:40 51°14.097 2°55.437 -999 -999 -999 -999 -999
2008-09-30 06:36:50 51°14.115 2°55.421 -999 -999 -999 -999 -999
2008-09-30 06:37:00 51°14.135 2°55.403 -999 -999 -999 -999 -999
2008-09-30 06:37:10 51°14.157 2°55.381 -999 -999 -999 -999 -999
2008-09-30 06:37:20 51°14.179 2°55.356 -999 -999 -999 -999 -999
2008-09-30 06:37:30 51°14.196 2°55.335 -999 -999 -999 -999 -999
2008-09-30 06:37:40 51°14.215 2°55.311 -999 -999 -999 -999 -999
2008-09-30 06:37:50 51°14.233 2°55.286 -999 -999 -999 -999 -999
2008-09-30 06:38:00 51°14.25 2°55.262 -999 -999 -999 -999 -999
2008-09-30 06:38:10 51°14.269 2°55.231 -999 -999 -999 -999 -999
2008-09-30 06:38:20 51°14.287 2°55.203 -999 -999 -999 -999 -999
2008-09-30 06:38:30 51°14.305 2°55.173 -999 -999 -999 -999 -999
2008-09-30 06:38:40 51°14.322 2°55.143 -999 -999 -999 -999 -999
2008-09-30 06:38:50 51°14.34 2°55.113 -999 -999 -999 -999 -999
2008-09-30 06:39:00 51°14.357 2°55.083 -999 -999 -999 -999 -999
2008-09-30 06:39:10 51°14.373 2°55.053 -999 -999 -999 -999 -999
2008-09-30 06:39:20 51°14.389 2°55.023 -999 -999 -999 -999 -999
2008-09-30 06:39:30 51°14.404 2°54.992 -999 -999 -999 -999 -999
2008-09-30 06:39:40 51°14.416 2°54.956 -999 -999 -999 -999 -999
2008-09-30 06:39:50 51°14.426 2°54.919 -999 -999 -999 -999 -999
2008-09-30 06:40:00 51°14.436 2°54.879 -999 -999 -999 -999 -999
2008-09-30 06:40:10 51°14.446 2°54.838 -999 -999 -999 -999 -999
2008-09-30 06:40:20 51°14.456 2°54.796 -999 -999 -999 -999 -999
2008-09-30 06:40:30 51°14.468 2°54.754 -999 -999 -999 -999 -999
2008-09-30 06:40:40 51°14.479 2°54.711 -999 -999 -999 -999 -999
2008-09-30 06:40:50 51°14.491 2°54.669 -999 -999 -999 -999 -999
2008-09-30 06:41:00 51°14.503 2°54.628 -999 -999 -999 -999 -999
2008-09-30 06:41:10 51°14.516 2°54.587 -999 -999 -999 -999 -999
2008-09-30 06:41:20 51°14.528 2°54.547 -999 -999 -999 -999 -999
2008-09-30 06:41:30 51°14.541 2°54.506 -999 -999 -999 -999 -999
2008-09-30 06:41:40 51°14.554 2°54.464 -999 -999 -999 -999 -999
2008-09-30 06:41:50 51°14.567 2°54.42 -999 -999 -999 -999 -999
2008-09-30 06:42:00 51°14.58 2°54.376 -999 -999 -999 -999 -999
2008-09-30 06:42:10 51°14.596 2°54.329 -999 -999 -999 -999 -999
2008-09-30 06:42:20 51°14.608 2°54.289 -999 -999 -999 -999 -999
2008-09-30 06:42:30 51°14.621 2°54.245 -999 -999 -999 -999 -999
2008-09-30 06:42:40 51°14.633 2°54.201 -999 -999 -999 -999 -999
2008-09-30 06:42:50 51°14.644 2°54.15 -999 -999 -999 -999 -999
2008-09-30 06:43:00 51°14.651 2°54.108 -999 -999 -999 -999 -999
2008-09-30 06:43:10 51°14.658 2°54.06 -999 -999 -999 -999 -999
2008-09-30 06:43:20 51°14.663 2°54.011 -999 -999 -999 -999 -999
2008-09-30 06:43:30 51°14.667 2°53.963 -999 -999 -999 -999 -999
2008-09-30 06:43:40 51°14.671 2°53.913 -999 -999 -999 -999 -999
2008-09-30 06:43:50 51°14.674 2°53.869 -999 -999 -999 -999 -999
2008-09-30 06:44:00 51°14.677 2°53.819 -999 -999 -999 -999 -999
2008-09-30 06:44:10 51°14.68 2°53.765 -999 -999 -999 -999 -999
2008-09-30 06:44:20 51°14.684 2°53.717 -999 -999 -999 -999 -999
2008-09-30 06:44:30 51°14.686 2°53.673 -999 -999 -999 -999 -999
2008-09-30 06:44:40 51°14.69 2°53.618 -999 -999 -999 -999 -999
2008-09-30 06:44:50 51°14.693 2°53.568 -999 -999 -999 -999 -999
2008-09-30 06:45:00 51°14.696 2°53.52 -999 -999 -999 -999 -999
2008-09-30 06:45:10 51°14.698 2°53.471 -999 -999 -999 -999 -999
2008-09-30 06:45:20 51°14.701 2°53.423 -999 -999 -999 -999 -999
2008-09-30 06:45:30 51°14.703 2°53.373 -999 -999 -999 -999 -999
2008-09-30 06:45:40 51°14.706 2°53.323 -999 -999 -999 -999 -999
2008-09-30 06:45:50 51°14.708 2°53.274 -999 -999 -999 -999 -999
2008-09-30 06:46:00 51°14.711 2°53.226 -999 -999 -999 -999 -999
2008-09-30 06:46:10 51°14.713 2°53.177 -999 -999 -999 -999 -999
2008-09-30 06:46:20 51°14.715 2°53.132 -999 -999 -999 -999 -999
2008-09-30 06:46:30 51°14.719 2°53.078 -999 -999 -999 -999 -999
2008-09-30 06:46:40 51°14.722 2°53.029 -999 -999 -999 -999 -999
2008-09-30 06:46:50 51°14.727 2°52.98 -999 -999 -999 -999 -999
2008-09-30 06:47:00 51°14.731 2°52.931 -999 -999 -999 -999 -999
2008-09-30 06:47:10 51°14.734 2°52.887 -999 -999 -999 -999 -999
2008-09-30 06:47:20 51°14.739 2°52.833 -999 -999 -999 -999 -999
2008-09-30 06:47:30 51°14.742 2°52.784 -999 -999 -999 -999 -999
2008-09-30 06:47:40 51°14.744 2°52.735 -999 -999 -999 -999 -999
2008-09-30 06:47:50 51°14.747 2°52.69 -999 -999 -999 -999 -999
2008-09-30 06:48:00 51°14.751 2°52.634 -999 -999 -999 -999 -999
2008-09-30 06:48:10 51°14.754 2°52.584 -999 -999 -999 -999 -999
2008-09-30 06:48:20 51°14.758 2°52.533 -999 -999 -999 -999 -999
2008-09-30 06:48:30 51°14.761 2°52.482 -999 -999 -999 -999 -999
2008-09-30 06:48:40 51°14.764 2°52.434 -999 -999 -999 -999 -999
2008-09-30 06:48:50 51°14.767 2°52.384 -999 -999 -999 -999 -999
2008-09-30 06:49:00 51°14.771 2°52.334 -999 -999 -999 -999 -999
2008-09-30 06:49:10 51°14.774 2°52.284 -999 -999 -999 -999 -999
2008-09-30 06:49:20 51°14.777 2°52.233 -999 -999 -999 -999 -999
2008-09-30 06:49:30 51°14.78 2°52.183 -999 -999 -999 -999 -999
2008-09-30 06:49:40 51°14.784 2°52.138 -999 -999 -999 -999 -999
2008-09-30 06:49:50 51°14.788 2°52.083 -999 -999 -999 -999 -999
2008-09-30 06:50:00 51°14.792 2°52.032 -999 -999 -999 -999 -999
2008-09-30 06:50:10 51°14.796 2°51.983 -999 -999 -999 -999 -999
2008-09-30 06:50:20 51°14.8 2°51.934 -999 -999 -999 -999 -999
2008-09-30 06:50:30 51°14.803 2°51.89 -999 -999 -999 -999 -999
2008-09-30 06:50:40 51°14.807 2°51.835 -999 -999 -999 -999 -999
2008-09-30 06:50:50 51°14.811 2°51.785 -999 -999 -999 -999 -999
2008-09-30 06:51:00 51°14.815 2°51.735 -999 -999 -999 -999 -999
2008-09-30 06:51:10 51°14.819 2°51.689 -999 -999 -999 -999 -999
2008-09-30 06:51:20 51°14.822 2°51.633 -999 -999 -999 -999 -999
2008-09-30 06:51:30 51°14.826 2°51.582 -999 -999 -999 -999 -999
2008-09-30 06:51:40 51°14.83 2°51.531 -999 -999 -999 -999 -999
2008-09-30 06:51:50 51°14.833 2°51.485 -999 -999 -999 -999 -999
2008-09-30 06:52:00 51°14.837 2°51.429 -999 -999 -999 -999 -999
2008-09-30 06:52:10 51°14.84 2°51.379 -999 -999 -999 -999 -999
2008-09-30 06:52:20 51°14.844 2°51.33 -999 -999 -999 -999 -999
2008-09-30 06:52:30 51°14.847 2°51.285 -999 -999 -999 -999 -999
2008-09-30 06:52:40 51°14.85 2°51.235 -999 -999 -999 -999 -999
2008-09-30 06:52:50 51°14.854 2°51.179 -999 -999 -999 -999 -999
2008-09-30 06:53:00 51°14.857 2°51.129 -999 -999 -999 -999 -999
2008-09-30 06:53:10 51°14.861 2°51.078 -999 -999 -999 -999 -999
2008-09-30 06:53:20 51°14.864 2°51.032 -999 -999 -999 -999 -999
2008-09-30 06:53:30 51°14.868 2°50.975 -999 -999 -999 -999 -999
2008-09-30 06:53:40 51°14.871 2°50.925 -999 -999 -999 -999 -999
2008-09-30 06:53:50 51°14.874 2°50.875 -999 -999 -999 -999 -999
2008-09-30 06:54:00 51°14.877 2°50.83 -999 -999 -999 -999 -999
2008-09-30 06:54:10 51°14.881 2°50.775 -999 -999 -999 -999 -999
2008-09-30 06:54:20 51°14.883 2°50.731 -999 -999 -999 -999 -999
2008-09-30 06:54:30 51°14.887 2°50.675 -999 -999 -999 -999 -999
2008-09-30 06:54:40 51°14.891 2°50.625 -999 -999 -999 -999 -999
2008-09-30 06:54:50 51°14.894 2°50.575 -999 -999 -999 -999 -999
2008-09-30 06:55:00 51°14.897 2°50.529 -999 -999 -999 -999 -999
2008-09-30 06:55:10 51°14.9 2°50.477 -999 -999 -999 -999 -999
2008-09-30 06:55:20 51°14.902 2°50.425 -999 -999 -999 -999 -999
2008-09-30 06:55:30 51°14.905 2°50.369 -999 -999 -999 -999 -999
2008-09-30 06:55:40 51°14.908 2°50.318 -999 -999 -999 -999 -999
2008-09-30 06:55:50 51°14.912 2°50.267 -999 -999 -999 -999 -999
2008-09-30 06:56:00 51°14.915 2°50.22 -999 -999 -999 -999 -999
2008-09-30 06:56:10 51°14.919 2°50.169 -999 -999 -999 -999 -999
2008-09-30 06:56:20 51°14.922 2°50.118 -999 -999 -999 -999 -999
2008-09-30 06:56:30 51°14.925 2°50.061 -999 -999 -999 -999 -999
2008-09-30 06:56:40 51°14.928 2°50.011 -999 -999 -999 -999 -999
2008-09-30 06:56:50 51°14.93 2°49.966 -999 -999 -999 -999 -999
2008-09-30 06:57:00 51°14.934 2°49.91 -999 -999 -999 -999 -999
2008-09-30 06:57:10 51°14.936 2°49.86 -999 -999 -999 -999 -999
2008-09-30 06:57:20 51°14.939 2°49.814 -999 -999 -999 -999 -999
2008-09-30 06:57:30 51°14.943 2°49.763 -999 -999 -999 -999 -999
2008-09-30 06:57:40 51°14.945 2°49.711 -999 -999 -999 -999 -999
2008-09-30 06:57:50 51°14.944 2°49.656 -999 -999 -999 -999 -999
2008-09-30 06:58:00 51°14.94 2°49.607 -999 -999 -999 -999 -999
2008-09-30 06:58:10 51°14.937 2°49.563 -999 -999 -999 -999 -999
2008-09-30 06:58:20 51°14.933 2°49.513 -999 -999 -999 -999 -999
2008-09-30 06:58:30 51°14.927 2°49.458 -999 -999 -999 -999 -999
2008-09-30 06:58:40 51°14.923 2°49.412 -999 -999 -999 -999 -999
2008-09-30 06:58:50 51°14.918 2°49.36 -999 -999 -999 -999 -999
2008-09-30 06:59:00 51°14.913 2°49.303 -999 -999 -999 -999 -999
2008-09-30 06:59:10 51°14.908 2°49.251 -999 -999 -999 -999 -999
2008-09-30 06:59:20 51°14.904 2°49.197 -999 -999 -999 -999 -999
2008-09-30 06:59:30 51°14.899 2°49.144 -999 -999 -999 -999 -999
2008-09-30 06:59:40 51°14.895 2°49.096 -999 -999 -999 -999 -999
2008-09-30 06:59:50 51°14.89 2°49.043 -999 -999 -999 -999 -999
2008-09-30 07:00:00 51°14.886 2°48.984 -999 -999 -999 -999 -999
2008-09-30 07:00:10 51°14.882 2°48.932 -999 -999 -999 -999 -999
2008-09-30 07:00:20 51°14.878 2°48.881 -999 -999 -999 -999 -999
2008-09-30 07:00:30 51°14.875 2°48.835 -999 -999 -999 -999 -999
2008-09-30 07:00:40 51°14.869 2°48.782 -999 -999 -999 -999 -999
2008-09-30 07:00:50 51°14.866 2°48.725 -999 -999 -999 -999 -999
2008-09-30 07:01:00 51°14.863 2°48.677 -999 -999 -999 -999 -999
2008-09-30 07:01:10 51°14.859 2°48.625 -999 -999 -999 -999 -999
2008-09-30 07:01:20 51°14.854 2°48.568 -999 -999 -999 -999 -999
2008-09-30 07:01:30 51°14.848 2°48.515 -999 -999 -999 -999 -999
2008-09-30 07:01:40 51°14.845 2°48.468 -999 -999 -999 -999 -999
2008-09-30 07:01:50 51°14.841 2°48.412 -999 -999 -999 -999 -999
2008-09-30 07:02:00 51°14.837 2°48.362 -999 -999 -999 -999 -999
2008-09-30 07:02:10 51°14.832 2°48.31 -999 -999 -999 -999 -999
2008-09-30 07:02:20 51°14.828 2°48.258 -999 -999 -999 -999 -999
2008-09-30 07:02:30 51°14.825 2°48.214 -999 -999 -999 -999 -999
2008-09-30 07:02:40 51°14.822 2°48.163 -999 -999 -999 -999 -999
2008-09-30 07:02:50 51°14.819 2°48.106 -999 -999 -999 -999 -999
2008-09-30 07:03:00 51°14.816 2°48.059 -999 -999 -999 -999 -999
2008-09-30 07:03:10 51°14.813 2°48.007 -999 -999 -999 -999 -999
2008-09-30 07:03:20 51°14.807 2°47.948 -999 -999 -999 -999 -999
2008-09-30 07:03:30 51°14.803 2°47.902 -999 -999 -999 -999 -999
2008-09-30 07:03:40 51°14.8 2°47.849 -999 -999 -999 -999 -999
2008-09-30 07:03:50 51°14.795 2°47.792 -999 -999 -999 -999 -999
2008-09-30 07:04:00 51°14.791 2°47.74 -999 -999 -999 -999 -999
2008-09-30 07:04:10 51°14.788 2°47.687 -999 -999 -999 -999 -999
2008-09-30 07:04:20 51°14.786 2°47.639 -999 -999 -999 -999 -999
2008-09-30 07:04:30 51°14.784 2°47.586 -999 -999 -999 -999 -999
2008-09-30 07:04:40 51°14.78 2°47.527 -999 -999 -999 -999 -999
2008-09-30 07:04:50 51°14.777 2°47.479 -999 -999 -999 -999 -999
2008-09-30 07:05:00 51°14.774 2°47.425 -999 -999 -999 -999 -999
2008-09-30 07:05:10 51°14.771 2°47.372 -999 -999 -999 -999 -999
2008-09-30 07:05:20 51°14.768 2°47.318 -999 -999 -999 -999 -999
2008-09-30 07:05:30 51°14.762 2°47.26 -999 -999 -999 -999 -999
2008-09-30 07:05:40 51°14.759 2°47.212 -999 -999 -999 -999 -999
2008-09-30 07:05:50 51°14.755 2°47.159 -999 -999 -999 -999 -999
2008-09-30 07:06:00 51°14.753 2°47.107 -999 -999 -999 -999 -999
2008-09-30 07:06:10 51°14.748 2°47.057 -999 -999 -999 -999 -999
2008-09-30 07:06:20 51°14.744 2°47.001 -999 -999 -999 -999 -999
2008-09-30 07:06:30 51°14.74 2°46.954 -999 -999 -999 -999 -999
2008-09-30 07:06:40 51°14.737 2°46.902 -999 -999 -999 -999 -999
2008-09-30 07:06:50 51°14.733 2°46.845 -999 -999 -999 -999 -999
2008-09-30 07:07:00 51°14.73 2°46.798 -999 -999 -999 -999 -999
2008-09-30 07:07:10 51°14.727 2°46.746 -999 -999 -999 -999 -999
2008-09-30 07:07:20 51°14.724 2°46.694 -999 -999 -999 -999 -999
2008-09-30 07:07:30 51°14.721 2°46.641 -999 -999 -999 -999 -999
2008-09-30 07:07:40 51°14.718 2°46.583 -999 -999 -999 -999 -999
2008-09-30 07:07:50 51°14.714 2°46.53 -999 -999 -999 -999 -999
2008-09-30 07:08:00 51°14.711 2°46.483 -999 -999 -999 -999 -999
2008-09-30 07:08:10 51°14.707 2°46.431 -999 -999 -999 -999 -999
2008-09-30 07:08:20 51°14.703 2°46.379 -999 -999 -999 -999 -999
2008-09-30 07:08:30 51°14.699 2°46.325 -999 -999 -999 -999 -999
2008-09-30 07:08:40 51°14.696 2°46.281 -999 -999 -999 -999 -999
2008-09-30 07:08:50 51°14.693 2°46.232 -999 -999 -999 -999 -999
2008-09-30 07:09:00 51°14.69 2°46.182 -999 -999 -999 -999 -999
2008-09-30 07:09:10 51°14.686 2°46.132 -999 -999 -999 -999 -999
2008-09-30 07:09:20 51°14.684 2°46.082 -999 -999 -999 -999 -999
2008-09-30 07:09:30 51°14.679 2°46.028 -999 -999 -999 -999 -999
2008-09-30 07:09:40 51°14.677 2°45.983 -999 -999 -999 -999 -999
2008-09-30 07:09:50 51°14.674 2°45.933 -999 -999 -999 -999 -999
2008-09-30 07:10:00 51°14.671 2°45.883 -999 -999 -999 -999 -999
2008-09-30 07:10:10 51°14.668 2°45.833 -999 -999 -999 -999 -999
2008-09-30 07:10:20 51°14.665 2°45.783 -999 -999 -999 -999 -999
2008-09-30 07:10:30 51°14.662 2°45.732 -999 -999 -999 -999 -999
2008-09-30 07:10:40 51°14.659 2°45.681 -999 -999 -999 -999 -999
2008-09-30 07:10:50 51°14.655 2°45.631 -999 -999 -999 -999 -999
2008-09-30 07:11:00 51°14.652 2°45.582 -999 -999 -999 -999 -999
2008-09-30 07:11:10 51°14.65 2°45.532 -999 -999 -999 -999 -999
2008-09-30 07:11:20 51°14.646 2°45.483 -999 -999 -999 -999 -999
2008-09-30 07:11:30 51°14.643 2°45.434 -999 -999 -999 -999 -999
2008-09-30 07:11:40 51°14.638 2°45.377 -999 -999 -999 -999 -999
2008-09-30 07:11:50 51°14.634 2°45.332 -999 -999 -999 -999 -999
2008-09-30 07:12:00 51°14.63 2°45.28 -999 -999 -999 -999 -999
2008-09-30 07:12:10 51°14.626 2°45.229 -999 -999 -999 -999 -999
2008-09-30 07:12:20 51°14.622 2°45.178 -999 -999 -999 -999 -999
2008-09-30 07:12:30 51°14.617 2°45.122 -999 -999 -999 -999 -999
2008-09-30 07:12:40 51°14.613 2°45.076 -999 -999 -999 -999 -999
2008-09-30 07:12:50 51°14.608 2°45.025 -999 -999 -999 -999 -999
2008-09-30 07:13:00 51°14.604 2°44.973 -999 -999 -999 -999 -999
2008-09-30 07:13:10 51°14.6 2°44.921 -999 -999 -999 -999 -999
2008-09-30 07:13:20 51°14.595 2°44.869 -999 -999 -999 -999 -999
2008-09-30 07:13:30 51°14.59 2°44.817 -999 -999 -999 -999 -999
2008-09-30 07:13:40 51°14.586 2°44.765 -999 -999 -999 -999 -999
2008-09-30 07:13:50 51°14.582 2°44.712 -999 -999 -999 -999 -999
2008-09-30 07:14:00 51°14.578 2°44.655 -999 -999 -999 -999 -999
2008-09-30 07:14:10 51°14.574 2°44.608 -999 -999 -999 -999 -999
2008-09-30 07:14:20 51°14.57 2°44.557 -999 -999 -999 -999 -999
2008-09-30 07:14:30 51°14.565 2°44.507 -999 -999 -999 -999 -999
2008-09-30 07:14:40 51°14.56 2°44.456 -999 -999 -999 -999 -999
2008-09-30 07:14:50 51°14.555 2°44.399 -999 -999 -999 -999 -999
2008-09-30 07:15:00 51°14.55 2°44.352 -999 -999 -999 -999 -999
2008-09-30 07:15:10 51°14.544 2°44.3 -999 -999 -999 -999 -999
2008-09-30 07:15:20 51°14.539 2°44.247 -999 -999 -999 -999 -999
2008-09-30 07:15:30 51°14.534 2°44.195 -999 -999 -999 -999 -999
2008-09-30 07:15:40 51°14.528 2°44.143 -999 -999 -999 -999 -999
2008-09-30 07:15:50 51°14.523 2°44.091 -999 -999 -999 -999 -999
2008-09-30 07:16:00 51°14.517 2°44.039 -999 -999 -999 -999 -999
2008-09-30 07:16:10 51°14.511 2°43.988 -999 -999 -999 -999 -999
2008-09-30 07:16:20 51°14.505 2°43.935 -999 -999 -999 -999 -999
2008-09-30 07:16:30 51°14.499 2°43.882 -999 -999 -999 -999 -999
2008-09-30 07:16:40 51°14.494 2°43.83 -999 -999 -999 -999 -999
2008-09-30 07:16:50 51°14.488 2°43.778 -999 -999 -999 -999 -999
2008-09-30 07:17:00 51°14.482 2°43.725 -999 -999 -999 -999 -999
2008-09-30 07:17:10 51°14.477 2°43.671 -999 -999 -999 -999 -999
2008-09-30 07:17:20 51°14.472 2°43.617 -999 -999 -999 -999 -999
2008-09-30 07:17:30 51°14.467 2°43.563 -999 -999 -999 -999 -999
2008-09-30 07:17:40 51°14.463 2°43.509 -999 -999 -999 -999 -999
2008-09-30 07:17:50 51°14.457 2°43.454 -999 -999 -999 -999 -999
2008-09-30 07:18:00 51°14.453 2°43.401 -999 -999 -999 -999 -999
2008-09-30 07:18:10 51°14.447 2°43.348 -999 -999 -999 -999 -999
2008-09-30 07:18:20 51°14.442 2°43.295 -999 -999 -999 -999 -999
2008-09-30 07:18:30 51°14.436 2°43.244 -999 -999 -999 -999 -999
2008-09-30 07:18:40 51°14.43 2°43.193 -999 -999 -999 -999 -999
2008-09-30 07:18:50 51°14.425 2°43.142 -999 -999 -999 -999 -999
2008-09-30 07:19:00 51°14.421 2°43.089 -999 -999 -999 -999 -999
2008-09-30 07:19:10 51°14.416 2°43.035 -999 -999 -999 -999 -999
2008-09-30 07:19:20 51°14.412 2°42.983 -999 -999 -999 -999 -999
2008-09-30 07:19:30 51°14.406 2°42.931 -999 -999 -999 -999 -999
2008-09-30 07:19:40 51°14.401 2°42.879 -999 -999 -999 -999 -999
2008-09-30 07:19:50 51°14.397 2°42.827 -999 -999 -999 -999 -999
2008-09-30 07:20:00 51°14.391 2°42.774 -999 -999 -999 -999 -999
2008-09-30 07:20:10 51°14.385 2°42.723 -999 -999 -999 -999 -999
2008-09-30 07:20:20 51°14.379 2°42.673 -999 -999 -999 -999 -999
2008-09-30 07:20:30 51°14.374 2°42.622 -999 -999 -999 -999 -999
2008-09-30 07:20:40 51°14.369 2°42.571 -999 -999 -999 -999 -999
2008-09-30 07:20:50 51°14.363 2°42.518 -999 -999 -999 -999 -999
2008-09-30 07:21:00 51°14.358 2°42.464 -999 -999 -999 -999 -999
2008-09-30 07:21:10 51°14.352 2°42.411 -999 -999 -999 -999 -999
2008-09-30 07:21:20 51°14.347 2°42.358 -999 -999 -999 -999 -999
2008-09-30 07:21:30 51°14.342 2°42.305 -999 -999 -999 -999 -999
2008-09-30 07:21:40 51°14.337 2°42.251 -999 -999 -999 -999 -999
2008-09-30 07:21:50 51°14.333 2°42.198 -999 -999 -999 -999 -999
2008-09-30 07:22:00 51°14.327 2°42.145 -999 -999 -999 -999 -999
2008-09-30 07:22:10 51°14.322 2°42.092 -999 -999 -999 -999 -999
2008-09-30 07:22:20 51°14.317 2°42.039 -999 -999 -999 -999 -999
2008-09-30 07:22:30 51°14.312 2°41.986 -999 -999 -999 -999 -999
2008-09-30 07:22:40 51°14.306 2°41.933 -999 -999 -999 -999 -999
2008-09-30 07:22:50 51°14.301 2°41.879 -999 -999 -999 -999 -999
2008-09-30 07:23:00 51°14.297 2°41.826 -999 -999 -999 -999 -999
2008-09-30 07:23:10 51°14.295 2°41.773 -999 -999 -999 -999 -999
2008-09-30 07:23:20 51°14.297 2°41.721 -999 -999 -999 -999 -999
2008-09-30 07:23:30 51°14.303 2°41.67 -999 -999 -999 -999 -999
2008-09-30 07:23:40 51°14.312 2°41.622 -999 -999 -999 -999 -999
2008-09-30 07:23:50 51°14.325 2°41.576 -999 -999 -999 -999 -999
2008-09-30 07:24:00 51°14.341 2°41.533 -999 -999 -999 -999 -999
2008-09-30 07:24:10 51°14.36 2°41.495 -999 -999 -999 -999 -999
2008-09-30 07:24:20 51°14.382 2°41.463 -999 -999 -999 -999 -999
2008-09-30 07:24:30 51°14.406 2°41.439 -999 -999 -999 -999 -999
2008-09-30 07:24:40 51°14.431 2°41.42 -999 -999 -999 -999 -999
2008-09-30 07:24:50 51°14.457 2°41.408 -999 -999 -999 -999 -999
2008-09-30 07:25:00 51°14.486 2°41.397 -999 -999 -999 -999 -999
2008-09-30 07:25:10 51°14.511 2°41.394 -999 -999 -999 -999 -999
2008-09-30 07:25:20 51°14.54 2°41.392 -999 -999 -999 -999 -999
2008-09-30 07:25:30 51°14.568 2°41.391 -999 -999 -999 -999 -999
2008-09-30 07:25:40 51°14.597 2°41.391 -999 -999 -999 -999 -999
2008-09-30 07:25:50 51°14.625 2°41.391 -999 -999 -999 -999 -999
2008-09-30 07:26:00 51°14.654 2°41.391 -999 -999 -999 -999 -999
2008-09-30 07:26:10 51°14.682 2°41.39 -999 -999 -999 -999 -999
2008-09-30 07:26:20 51°14.712 2°41.391 -999 -999 -999 -999 -999
2008-09-30 07:26:30 51°14.741 2°41.39 -999 -999 -999 -999 -999
2008-09-30 07:26:40 51°14.769 2°41.389 -999 -999 -999 -999 -999
2008-09-30 07:26:50 51°14.798 2°41.389 -999 -999 -999 -999 -999
2008-09-30 07:27:00 51°14.83 2°41.388 -999 -999 -999 -999 -999
2008-09-30 07:27:10 51°14.857 2°41.387 -999 -999 -999 -999 -999
2008-09-30 07:27:20 51°14.886 2°41.386 -999 -999 -999 -999 -999
2008-09-30 07:27:30 51°14.915 2°41.386 -999 -999 -999 -999 -999
2008-09-30 07:27:40 51°14.947 2°41.384 -999 -999 -999 -999 -999
2008-09-30 07:27:50 51°14.973 2°41.384 -999 -999 -999 -999 -999
2008-09-30 07:28:00 51°15.002 2°41.382 -999 -999 -999 -999 -999
2008-09-30 07:28:10 51°15.031 2°41.379 -999 -999 -999 -999 -999
2008-09-30 07:28:20 51°15.061 2°41.377 -999 -999 -999 -999 -999
2008-09-30 07:28:30 51°15.09 2°41.376 -999 -999 -999 -999 -999
2008-09-30 07:28:40 51°15.121 2°41.373 -999 -999 -999 -999 -999
2008-09-30 07:28:50 51°15.147 2°41.373 -999 -999 -999 -999 -999
2008-09-30 07:29:00 51°15.175 2°41.372 -999 -999 -999 -999 -999
2008-09-30 07:29:10 51°15.203 2°41.37 -999 -999 -999 -999 -999
2008-09-30 07:29:20 51°15.232 2°41.369 -999 -999 -999 -999 -999
2008-09-30 07:29:30 51°15.26 2°41.367 -999 -999 -999 -999 -999
2008-09-30 07:29:40 51°15.289 2°41.364 -999 -999 -999 -999 -999
2008-09-30 07:29:50 51°15.318 2°41.36 -999 -999 -999 -999 -999
2008-09-30 07:30:00 51°15.346 2°41.359 -999 -999 -999 -999 -999
2008-09-30 07:30:10 51°15.372 2°41.356 -999 -999 -999 -999 -999
2008-09-30 07:30:20 51°15.396 2°41.352 -999 -999 -999 -999 -999
2008-09-30 07:30:30 51°15.412 2°41.348 -999 -999 -999 -999 -999
2008-09-30 07:30:40 51°15.428 2°41.349 -999 -999 -999 -999 -999
2008-09-30 07:30:50 51°15.44 2°41.353 -999 -999 -999 -999 -999
2008-09-30 07:31:00 51°15.45 2°41.361 -999 -999 -999 -999 -999
2008-09-30 07:31:10 51°15.457 2°41.371 -999 -999 -999 -999 -999
2008-09-30 07:31:20 51°15.462 2°41.381 -999 -999 -999 -999 -999
2008-09-30 07:31:30 51°15.466 2°41.394 -999 -999 -999 -999 -999
2008-09-30 07:31:40 51°15.468 2°41.408 -999 -999 -999 -999 -999
2008-09-30 07:31:50 51°15.472 2°41.422 -999 -999 -999 -999 -999
2008-09-30 07:32:00 51°15.475 2°41.436 -999 -999 -999 -999 -999
2008-09-30 07:32:10 51°15.478 2°41.45 -999 -999 -999 -999 -999
2008-09-30 07:32:20 51°15.482 2°41.464 -999 -999 -999 -999 -999
2008-09-30 07:32:30 51°15.485 2°41.478 -999 -999 -999 -999 -999
2008-09-30 07:32:40 51°15.49 2°41.491 -999 -999 -999 -999 -999
2008-09-30 07:32:50 51°15.494 2°41.503 -999 -999 -999 -999 -999
2008-09-30 07:33:00 51°15.498 2°41.515 -999 -999 -999 -999 -999
2008-09-30 07:33:10 51°15.501 2°41.53 -999 -999 -999 -999 -999
2008-09-30 07:33:20 51°15.502 2°41.545 -999 -999 -999 -999 -999
2008-09-30 07:33:30 51°15.501 2°41.562 -999 -999 -999 -999 -999
2008-09-30 07:33:40 51°15.498 2°41.58 -999 -999 -999 -999 -999
2008-09-30 07:33:50 51°15.494 2°41.599 -999 -999 -999 -999 -999
2008-09-30 07:34:00 51°15.491 2°41.619 -999 -999 -999 -999 -999
2008-09-30 07:34:10 51°15.489 2°41.64 -999 -999 -999 -999 -999
2008-09-30 07:34:20 51°15.488 2°41.663 -999 -999 -999 -999 -999
2008-09-30 07:34:30 51°15.487 2°41.685 -999 -999 -999 -999 -999
2008-09-30 07:34:40 51°15.486 2°41.707 -999 -999 -999 -999 -999
2008-09-30 07:34:50 51°15.483 2°41.727 -999 -999 -999 -999 -999
2008-09-30 07:35:00 51°15.479 2°41.749 -999 -999 -999 -999 -999
2008-09-30 07:35:10 51°15.473 2°41.769 -999 -999 -999 -999 -999
2008-09-30 07:35:20 51°15.468 2°41.784 -999 -999 -999 -999 -999
2008-09-30 07:35:30 51°15.461 2°41.798 -999 -999 -999 -999 -999
2008-09-30 07:35:40 51°15.455 2°41.808 -999 -999 -999 -999 -999
2008-09-30 07:35:50 51°15.45 2°41.813 -999 -999 -999 -999 -999
2008-09-30 07:36:00 51°15.446 2°41.816 -999 -999 -999 -999 -999
2008-09-30 07:36:10 51°15.442 2°41.818 -999 -999 -999 -999 -999
2008-09-30 07:36:20 51°15.438 2°41.819 -999 -999 -999 -999 -999
2008-09-30 07:36:30 51°15.434 2°41.821 -999 -999 -999 -999 -999
2008-09-30 07:36:40 51°15.431 2°41.823 -999 -999 -999 -999 -999
2008-09-30 07:36:50 51°15.427 2°41.823 -999 -999 -999 -999 -999
2008-09-30 07:37:00 51°15.424 2°41.824 -999 -999 -999 -999 -999
2008-09-30 07:37:10 51°15.42 2°41.826 -999 -999 -999 -999 -999
2008-09-30 07:37:20 51°15.416 2°41.827 -999 -999 -999 -999 -999
2008-09-30 07:37:30 51°15.412 2°41.826 -999 -999 -999 -999 -999
2008-09-30 07:37:40 51°15.409 2°41.829 -999 -999 -999 -999 -999
2008-09-30 07:37:50 51°15.405 2°41.828 -999 -999 -999 -999 -999
2008-09-30 07:38:00 51°15.401 2°41.829 -999 -999 -999 -999 -999
2008-09-30 07:38:10 51°15.398 2°41.83 -999 -999 -999 -999 -999
2008-09-30 07:38:20 51°15.395 2°41.829 -999 -999 -999 -999 -999
2008-09-30 07:38:30 51°15.391 2°41.831 -999 -999 -999 -999 -999
2008-09-30 07:38:40 51°15.389 2°41.831 -999 -999 -999 -999 -999
2008-09-30 07:38:50 51°15.385 2°41.831 -999 -999 -999 -999 -999
2008-09-30 07:39:00 51°15.382 2°41.832 -999 -999 -999 -999 -999
2008-09-30 07:39:10 51°15.379 2°41.833 -999 -999 -999 -999 -999
2008-09-30 07:39:20 51°15.376 2°41.833 -999 -999 -999 -999 -999
2008-09-30 07:39:30 51°15.373 2°41.834 -999 -999 -999 -999 -999
2008-09-30 07:39:40 51°15.37 2°41.835 -999 -999 -999 -999 -999
2008-09-30 07:39:50 51°15.367 2°41.836 -999 -999 -999 -999 -999
2008-09-30 07:40:00 51°15.365 2°41.836 -999 -999 -999 -999 -999
2008-09-30 07:40:10 51°15.363 2°41.838 -999 -999 -999 -999 -999
2008-09-30 07:40:20 51°15.359 2°41.84 -999 -999 -999 -999 -999
2008-09-30 07:40:30 51°15.357 2°41.84 -999 -999 -999 -999 -999
2008-09-30 07:40:40 51°15.354 2°41.841 -999 -999 -999 -999 -999
2008-09-30 07:40:50 51°15.352 2°41.841 -999 -999 -999 -999 -999
2008-09-30 07:41:00 51°15.349 2°41.842 -999 -999 -999 -999 -999
2008-09-30 07:41:10 51°15.346 2°41.843 -999 -999 -999 -999 -999
2008-09-30 07:41:20 51°15.343 2°41.843 -999 -999 -999 -999 -999
2008-09-30 07:41:30 51°15.341 2°41.844 -999 -999 -999 -999 -999
2008-09-30 07:41:40 51°15.339 2°41.846 -999 -999 -999 -999 -999
2008-09-30 07:41:50 51°15.336 2°41.847 -999 -999 -999 -999 -999
2008-09-30 07:42:00 51°15.334 2°41.848 -999 -999 -999 -999 -999
2008-09-30 07:42:10 51°15.331 2°41.849 -999 -999 -999 -999 -999
2008-09-30 07:42:20 51°15.328 2°41.849 -999 -999 -999 -999 -999
2008-09-30 07:42:30 51°15.326 2°41.85 -999 -999 -999 -999 -999
2008-09-30 07:42:40 51°15.324 2°41.851 -999 -999 -999 -999 -999
2008-09-30 07:42:50 51°15.321 2°41.852 -999 -999 -999 -999 -999
2008-09-30 07:43:00 51°15.319 2°41.853 -999 -999 -999 -999 -999
2008-09-30 07:43:10 51°15.316 2°41.853 -999 -999 -999 -999 -999
2008-09-30 07:43:20 51°15.313 2°41.854 -999 -999 -999 -999 -999
2008-09-30 07:43:30 51°15.31 2°41.856 -999 -999 -999 -999 -999
2008-09-30 07:43:40 51°15.307 2°41.856 -999 -999 -999 -999 -999
2008-09-30 07:43:50 51°15.304 2°41.857 -999 -999 -999 -999 -999
2008-09-30 07:44:00 51°15.302 2°41.858 -999 -999 -999 -999 -999
2008-09-30 07:44:10 51°15.299 2°41.86 -999 -999 -999 -999 -999
2008-09-30 07:44:20 51°15.297 2°41.86 -999 -999 -999 -999 -999
2008-09-30 07:44:30 51°15.294 2°41.861 -999 -999 -999 -999 -999
2008-09-30 07:44:40 51°15.291 2°41.863 -999 -999 -999 -999 -999
2008-09-30 07:44:50 51°15.288 2°41.863 -999 -999 -999 -999 -999
2008-09-30 07:45:00 51°15.286 2°41.865 -999 -999 -999 -999 -999
2008-09-30 07:45:10 51°15.283 2°41.866 -999 -999 -999 -999 -999
2008-09-30 07:45:20 51°15.28 2°41.867 -999 -999 -999 -999 -999
2008-09-30 07:45:30 51°15.277 2°41.867 -999 -999 -999 -999 -999
2008-09-30 07:45:40 51°15.274 2°41.868 -999 -999 -999 -999 -999
2008-09-30 07:45:50 51°15.271 2°41.869 -999 -999 -999 -999 -999
2008-09-30 07:46:00 51°15.268 2°41.871 -999 -999 -999 -999 -999
2008-09-30 07:46:10 51°15.266 2°41.871 -999 -999 -999 -999 -999
2008-09-30 07:46:20 51°15.263 2°41.872 -999 -999 -999 -999 -999
2008-09-30 07:46:30 51°15.26 2°41.874 -999 -999 -999 -999 -999
2008-09-30 07:46:40 51°15.257 2°41.874 -999 -999 -999 -999 -999
2008-09-30 07:46:50 51°15.255 2°41.876 -999 -999 -999 -999 -999
2008-09-30 07:47:00 51°15.252 2°41.877 -999 -999 -999 -999 -999
2008-09-30 07:47:10 51°15.249 2°41.878 -999 -999 -999 -999 -999
2008-09-30 07:47:20 51°15.246 2°41.879 -999 -999 -999 -999 -999
2008-09-30 07:47:30 51°15.244 2°41.88 -999 -999 -999 -999 -999
2008-09-30 07:47:40 51°15.241 2°41.881 -999 -999 -999 -999 -999
2008-09-30 07:47:50 51°15.238 2°41.882 -999 -999 -999 -999 -999
2008-09-30 07:48:00 51°15.235 2°41.884 -999 -999 -999 -999 -999
2008-09-30 07:48:10 51°15.232 2°41.885 -999 -999 -999 -999 -999
2008-09-30 07:48:20 51°15.23 2°41.886 -999 -999 -999 -999 -999
2008-09-30 07:48:30 51°15.227 2°41.887 -999 -999 -999 -999 -999
2008-09-30 07:48:40 51°15.224 2°41.887 -999 -999 -999 -999 -999
2008-09-30 07:48:50 51°15.222 2°41.888 -999 -999 -999 -999 -999
2008-09-30 07:49:00 51°15.219 2°41.889 -999 -999 -999 -999 -999
2008-09-30 07:49:10 51°15.216 2°41.89 -999 -999 -999 -999 -999
2008-09-30 07:49:20 51°15.213 2°41.891 -999 -999 -999 -999 -999
2008-09-30 07:49:30 51°15.21 2°41.893 -999 -999 -999 -999 -999
2008-09-30 07:49:40 51°15.207 2°41.894 -999 -999 -999 -999 -999
2008-09-30 07:49:50 51°15.204 2°41.895 -999 -999 -999 -999 -999
2008-09-30 07:50:00 51°15.201 2°41.896 -999 -999 -999 -999 -999
2008-09-30 07:50:10 51°15.199 2°41.897 -999 -999 -999 -999 -999
2008-09-30 07:50:20 51°15.196 2°41.898 -999 -999 -999 -999 -999
2008-09-30 07:50:30 51°15.192 2°41.899 -999 -999 -999 -999 -999
2008-09-30 07:50:40 51°15.19 2°41.901 -999 -999 -999 -999 -999
2008-09-30 07:50:50 51°15.187 2°41.901 -999 -999 -999 -999 -999
2008-09-30 07:51:00 51°15.184 2°41.902 -999 -999 -999 -999 -999
2008-09-30 07:51:10 51°15.181 2°41.904 -999 -999 -999 -999 -999
2008-09-30 07:51:20 51°15.179 2°41.905 -999 -999 -999 -999 -999
2008-09-30 07:51:30 51°15.176 2°41.906 -999 -999 -999 -999 -999
2008-09-30 07:51:40 51°15.173 2°41.907 -999 -999 -999 -999 -999
2008-09-30 07:51:50 51°15.171 2°41.909 -999 -999 -999 -999 -999
2008-09-30 07:52:00 51°15.168 2°41.909 -999 -999 -999 -999 -999
2008-09-30 07:52:10 51°15.165 2°41.911 -999 -999 -999 -999 -999
2008-09-30 07:52:20 51°15.162 2°41.912 -999 -999 -999 -999 -999
2008-09-30 07:52:30 51°15.16 2°41.913 -999 -999 -999 -999 -999
2008-09-30 07:52:40 51°15.157 2°41.914 -999 -999 -999 -999 -999
2008-09-30 07:52:50 51°15.154 2°41.915 -999 -999 -999 -999 -999
2008-09-30 07:53:00 51°15.151 2°41.916 -999 -999 -999 -999 -999
2008-09-30 07:53:10 51°15.148 2°41.917 -999 -999 -999 -999 -999
2008-09-30 07:53:20 51°15.146 2°41.918 -999 -999 -999 -999 -999
2008-09-30 07:53:30 51°15.143 2°41.919 -999 -999 -999 -999 -999
2008-09-30 07:53:40 51°15.14 2°41.92 -999 -999 -999 -999 -999
2008-09-30 07:53:50 51°15.137 2°41.921 -999 -999 -999 -999 -999
2008-09-30 07:54:00 51°15.134 2°41.923 -999 -999 -999 -999 -999
2008-09-30 07:54:10 51°15.132 2°41.923 -999 -999 -999 -999 -999
2008-09-30 07:54:20 51°15.129 2°41.925 -999 -999 -999 -999 -999
2008-09-30 07:54:30 51°15.126 2°41.926 -999 -999 -999 -999 -999
2008-09-30 07:54:40 51°15.123 2°41.927 -999 -999 -999 -999 -999
2008-09-30 07:54:50 51°15.12 2°41.929 -999 -999 -999 -999 -999
2008-09-30 07:55:00 51°15.117 2°41.93 -999 -999 -999 -999 -999
2008-09-30 07:55:10 51°15.114 2°41.931 -999 -999 -999 -999 -999
2008-09-30 07:55:20 51°15.111 2°41.932 -999 -999 -999 -999 -999
2008-09-30 07:55:30 51°15.108 2°41.933 -999 -999 -999 -999 -999
2008-09-30 07:55:40 51°15.105 2°41.934 -999 -999 -999 -999 -999
2008-09-30 07:55:50 51°15.102 2°41.935 -999 -999 -999 -999 -999
2008-09-30 07:56:00 51°15.099 2°41.936 -999 -999 -999 -999 -999
2008-09-30 07:56:10 51°15.096 2°41.936 -999 -999 -999 -999 -999
2008-09-30 07:56:20 51°15.093 2°41.938 -999 -999 -999 -999 -999
2008-09-30 07:56:30 51°15.09 2°41.938 -999 -999 -999 -999 -999
2008-09-30 07:56:40 51°15.087 2°41.939 -999 -999 -999 -999 -999
2008-09-30 07:56:50 51°15.085 2°41.94 -999 -999 -999 -999 -999
2008-09-30 07:57:00 51°15.082 2°41.94 -999 -999 -999 -999 -999
2008-09-30 07:57:10 51°15.079 2°41.942 -999 -999 -999 -999 -999
2008-09-30 07:57:20 51°15.076 2°41.941 -999 -999 -999 -999 -999
2008-09-30 07:57:30 51°15.073 2°41.943 -999 -999 -999 -999 -999
2008-09-30 07:57:40 51°15.071 2°41.943 -999 -999 -999 -999 -999
2008-09-30 07:57:50 51°15.068 2°41.944 -999 -999 -999 -999 -999
2008-09-30 07:58:00 51°15.065 2°41.945 -999 -999 -999 -999 -999
2008-09-30 07:58:10 51°15.063 2°41.946 -999 -999 -999 -999 -999
2008-09-30 07:58:20 51°15.06 2°41.947 -999 -999 -999 -999 -999
2008-09-30 07:58:30 51°15.057 2°41.949 -999 -999 -999 -999 -999
2008-09-30 07:58:40 51°15.055 2°41.949 -999 -999 -999 -999 -999
2008-09-30 07:58:50 51°15.052 2°41.95 -999 -999 -999 -999 -999
2008-09-30 07:59:00 51°15.05 2°41.952 -999 -999 -999 -999 -999
2008-09-30 07:59:10 51°15.047 2°41.953 -999 -999 -999 -999 -999
2008-09-30 07:59:20 51°15.044 2°41.954 -999 -999 -999 -999 -999
2008-09-30 07:59:30 51°15.041 2°41.955 -999 -999 -999 -999 -999
2008-09-30 07:59:40 51°15.038 2°41.955 -999 -999 -999 -999 -999
2008-09-30 07:59:50 51°15.036 2°41.955 -999 -999 -999 -999 -999
2008-09-30 08:00:00 51°15.033 2°41.956 -999 -999 -999 -999 -999
2008-09-30 08:00:10 51°15.03 2°41.957 -999 -999 -999 -999 -999
2008-09-30 08:00:20 51°15.027 2°41.958 -999 -999 -999 -999 -999
2008-09-30 08:00:30 51°15.025 2°41.959 -999 -999 -999 -999 -999
2008-09-30 08:00:40 51°15.022 2°41.959 -999 -999 -999 -999 -999
2008-09-30 08:00:50 51°15.02 2°41.96 -999 -999 -999 -999 -999
2008-09-30 08:01:00 51°15.018 2°41.961 -999 -999 -999 -999 -999
2008-09-30 08:01:10 51°15.015 2°41.962 -999 -999 -999 -999 -999
2008-09-30 08:01:20 51°15.012 2°41.963 -999 -999 -999 -999 -999
2008-09-30 08:01:30 51°15.01 2°41.964 -999 -999 -999 -999 -999
2008-09-30 08:01:40 51°15.007 2°41.964 -999 -999 -999 -999 -999
2008-09-30 08:01:50 51°15.004 2°41.966 -999 -999 -999 -999 -999
2008-09-30 08:02:00 51°15.002 2°41.966 -999 -999 -999 -999 -999
2008-09-30 08:02:10 51°14.999 2°41.967 -999 -999 -999 -999 -999
2008-09-30 08:02:20 51°14.996 2°41.968 -999 -999 -999 -999 -999
2008-09-30 08:02:30 51°14.994 2°41.97 -999 -999 -999 -999 -999
2008-09-30 08:02:40 51°14.991 2°41.97 -999 -999 -999 -999 -999
2008-09-30 08:02:50 51°14.989 2°41.971 -999 -999 -999 -999 -999
2008-09-30 08:03:00 51°14.986 2°41.972 -999 -999 -999 -999 -999
2008-09-30 08:03:10 51°14.984 2°41.973 -999 -999 -999 -999 -999
2008-09-30 08:03:20 51°14.981 2°41.974 -999 -999 -999 -999 -999
2008-09-30 08:03:30 51°14.979 2°41.974 -999 -999 -999 -999 -999
2008-09-30 08:03:40 51°14.976 2°41.976 -999 -999 -999 -999 -999
2008-09-30 08:03:50 51°14.974 2°41.977 -999 -999 -999 -999 -999
2008-09-30 08:04:00 51°14.971 2°41.978 -999 -999 -999 -999 -999
2008-09-30 08:04:10 51°14.968 2°41.979 -999 -999 -999 -999 -999
2008-09-30 08:04:20 51°14.965 2°41.979 -999 -999 -999 -999 -999
2008-09-30 08:04:30 51°14.963 2°41.981 -999 -999 -999 -999 -999
2008-09-30 08:04:40 51°14.959 2°41.982 -999 -999 -999 -999 -999
2008-09-30 08:04:50 51°14.957 2°41.983 -999 -999 -999 -999 -999
2008-09-30 08:05:00 51°14.954 2°41.983 -999 -999 -999 -999 -999
2008-09-30 08:05:10 51°14.951 2°41.985 -999 -999 -999 -999 -999
2008-09-30 08:05:20 51°14.948 2°41.985 -999 -999 -999 -999 -999
2008-09-30 08:05:30 51°14.945 2°41.985 -999 -999 -999 -999 -999
2008-09-30 08:05:40 51°14.942 2°41.986 -999 -999 -999 -999 -999
2008-09-30 08:05:50 51°14.939 2°41.986 -999 -999 -999 -999 -999
2008-09-30 08:06:00 51°14.937 2°41.987 -999 -999 -999 -999 -999
2008-09-30 08:06:10 51°14.934 2°41.987 -999 -999 -999 -999 -999
2008-09-30 08:06:20 51°14.931 2°41.988 -999 -999 -999 -999 -999
2008-09-30 08:06:30 51°14.928 2°41.988 -999 -999 -999 -999 -999
2008-09-30 08:06:40 51°14.926 2°41.99 -999 -999 -999 -999 -999
2008-09-30 08:06:50 51°14.923 2°41.991 -999 -999 -999 -999 -999
2008-09-30 08:07:00 51°14.921 2°41.991 -999 -999 -999 -999 -999
2008-09-30 08:07:10 51°14.918 2°41.992 -999 -999 -999 -999 -999
2008-09-30 08:07:20 51°14.915 2°41.992 -999 -999 -999 -999 -999
2008-09-30 08:07:30 51°14.913 2°41.993 -999 -999 -999 -999 -999
2008-09-30 08:07:40 51°14.91 2°41.993 -999 -999 -999 -999 -999
2008-09-30 08:07:50 51°14.907 2°41.993 -999 -999 -999 -999 -999
2008-09-30 08:08:00 51°14.904 2°41.994 -999 -999 -999 -999 -999
2008-09-30 08:08:10 51°14.902 2°41.994 -999 -999 -999 -999 -999
2008-09-30 08:08:20 51°14.899 2°41.995 -999 -999 -999 -999 -999
2008-09-30 08:08:30 51°14.896 2°41.996 -999 -999 -999 -999 -999
2008-09-30 08:08:40 51°14.893 2°41.996 -999 -999 -999 -999 -999
2008-09-30 08:08:50 51°14.89 2°41.997 -999 -999 -999 -999 -999
2008-09-30 08:09:00 51°14.887 2°41.998 -999 -999 -999 -999 -999
2008-09-30 08:09:10 51°14.884 2°41.998 -999 -999 -999 -999 -999
2008-09-30 08:09:20 51°14.881 2°41.999 -999 -999 -999 -999 -999
2008-09-30 08:09:30 51°14.878 2°42 -999 -999 -999 -999 -999
2008-09-30 08:09:40 51°14.875 2°42 -999 -999 -999 -999 -999
2008-09-30 08:09:50 51°14.873 2°42.001 -999 -999 -999 -999 -999
2008-09-30 08:10:00 51°14.87 2°42.002 -999 -999 -999 -999 -999
2008-09-30 08:10:10 51°14.867 2°42.002 -999 -999 -999 -999 -999
2008-09-30 08:10:20 51°14.864 2°42.003 -999 -999 -999 -999 -999
2008-09-30 08:10:30 51°14.861 2°42.004 -999 -999 -999 -999 -999
2008-09-30 08:10:40 51°14.858 2°42.004 -999 -999 -999 -999 -999
2008-09-30 08:10:50 51°14.855 2°42.005 -999 -999 -999 -999 -999
2008-09-30 08:11:00 51°14.852 2°42.005 -999 -999 -999 -999 -999
2008-09-30 08:11:10 51°14.85 2°42.006 -999 -999 -999 -999 -999
2008-09-30 08:11:20 51°14.847 2°42.006 -999 -999 -999 -999 -999
2008-09-30 08:11:30 51°14.844 2°42.007 -999 -999 -999 -999 -999
2008-09-30 08:11:40 51°14.841 2°42.008 -999 -999 -999 -999 -999
2008-09-30 08:11:50 51°14.838 2°42.008 -999 -999 -999 -999 -999
2008-09-30 08:12:00 51°14.836 2°42.007 -999 -999 -999 -999 -999
2008-09-30 08:12:10 51°14.833 2°42.009 -999 -999 -999 -999 -999
2008-09-30 08:12:20 51°14.83 2°42.008 -999 -999 -999 -999 -999
2008-09-30 08:12:30 51°14.827 2°42.009 -999 -999 -999 -999 -999
2008-09-30 08:12:40 51°14.824 2°42.009 -999 -999 -999 -999 -999
2008-09-30 08:12:50 51°14.821 2°42.01 -999 -999 -999 -999 -999
2008-09-30 08:13:00 51°14.818 2°42.01 -999 -999 -999 -999 -999
2008-09-30 08:13:10 51°14.814 2°42.01 -999 -999 -999 -999 -999
2008-09-30 08:13:20 51°14.811 2°42.011 -999 -999 -999 -999 -999
2008-09-30 08:13:30 51°14.808 2°42.011 -999 -999 -999 -999 -999
2008-09-30 08:13:40 51°14.805 2°42.012 -999 -999 -999 -999 -999
2008-09-30 08:13:50 51°14.803 2°42.012 -999 -999 -999 -999 -999
2008-09-30 08:14:00 51°14.8 2°42.013 -999 -999 -999 -999 -999
2008-09-30 08:14:10 51°14.797 2°42.013 -999 -999 -999 -999 -999
2008-09-30 08:14:20 51°14.794 2°42.013 -999 -999 -999 -999 -999
2008-09-30 08:14:30 51°14.792 2°42.014 -999 -999 -999 -999 -999
2008-09-30 08:14:40 51°14.788 2°42.015 -999 -999 -999 -999 -999
2008-09-30 08:14:50 51°14.786 2°42.016 -999 -999 -999 -999 -999
2008-09-30 08:15:00 51°14.783 2°42.017 -999 -999 -999 -999 -999
2008-09-30 08:15:10 51°14.78 2°42.017 -999 -999 -999 -999 -999
2008-09-30 08:15:20 51°14.777 2°42.018 -999 -999 -999 -999 -999
2008-09-30 08:15:30 51°14.774 2°42.019 -999 -999 -999 -999 -999
2008-09-30 08:15:40 51°14.772 2°42.02 -999 -999 -999 -999 -999
2008-09-30 08:15:50 51°14.768 2°42.021 -999 -999 -999 -999 -999
2008-09-30 08:16:00 51°14.766 2°42.021 -999 -999 -999 -999 -999
2008-09-30 08:16:10 51°14.763 2°42.022 -999 -999 -999 -999 -999
2008-09-30 08:16:20 51°14.76 2°42.022 -999 -999 -999 -999 -999
2008-09-30 08:16:30 51°14.757 2°42.023 -999 -999 -999 -999 -999
2008-09-30 08:16:40 51°14.754 2°42.023 -999 -999 -999 -999 -999
2008-09-30 08:16:50 51°14.751 2°42.023 -999 -999 -999 -999 -999
2008-09-30 08:17:00 51°14.749 2°42.023 -999 -999 -999 -999 -999
2008-09-30 08:17:10 51°14.746 2°42.024 -999 -999 -999 -999 -999
2008-09-30 08:17:20 51°14.744 2°42.024 -999 -999 -999 -999 -999
2008-09-30 08:17:30 51°14.741 2°42.025 -999 -999 -999 -999 -999
2008-09-30 08:17:40 51°14.739 2°42.026 -999 -999 -999 -999 -999
2008-09-30 08:17:50 51°14.737 2°42.026 -999 -999 -999 -999 -999
2008-09-30 08:18:00 51°14.735 2°42.028 -999 -999 -999 -999 -999
2008-09-30 08:18:10 51°14.733 2°42.029 -999 -999 -999 -999 -999
2008-09-30 08:18:20 51°14.731 2°42.03 -999 -999 -999 -999 -999
2008-09-30 08:18:30 51°14.728 2°42.03 -999 -999 -999 -999 -999
2008-09-30 08:18:40 51°14.726 2°42.03 -999 -999 -999 -999 -999
2008-09-30 08:18:50 51°14.724 2°42.031 -999 -999 -999 -999 -999
2008-09-30 08:19:00 51°14.722 2°42.032 -999 -999 -999 -999 -999
2008-09-30 08:19:10 51°14.719 2°42.032 -999 -999 -999 -999 -999
2008-09-30 08:19:20 51°14.717 2°42.033 -999 -999 -999 -999 -999
2008-09-30 08:19:30 51°14.714 2°42.033 -999 -999 -999 -999 -999
2008-09-30 08:19:40 51°14.711 2°42.034 -999 -999 -999 -999 -999
2008-09-30 08:19:50 51°14.709 2°42.034 -999 -999 -999 -999 -999
2008-09-30 08:20:00 51°14.706 2°42.035 -999 -999 -999 -999 -999
2008-09-30 08:20:10 51°14.703 2°42.036 -999 -999 -999 -999 -999
2008-09-30 08:20:20 51°14.701 2°42.036 -999 -999 -999 -999 -999
2008-09-30 08:20:30 51°14.698 2°42.037 -999 -999 -999 -999 -999
2008-09-30 08:20:40 51°14.695 2°42.038 -999 -999 -999 -999 -999
2008-09-30 08:20:50 51°14.692 2°42.039 -999 -999 -999 -999 -999
2008-09-30 08:21:00 51°14.689 2°42.039 -999 -999 -999 -999 -999
2008-09-30 08:21:10 51°14.686 2°42.039 -999 -999 -999 -999 -999
2008-09-30 08:21:20 51°14.684 2°42.04 -999 -999 -999 -999 -999
2008-09-30 08:21:30 51°14.681 2°42.04 -999 -999 -999 -999 -999
2008-09-30 08:21:40 51°14.678 2°42.041 -999 -999 -999 -999 -999
2008-09-30 08:21:50 51°14.675 2°42.042 -999 -999 -999 -999 -999
2008-09-30 08:22:00 51°14.672 2°42.042 -999 -999 -999 -999 -999
2008-09-30 08:22:10 51°14.67 2°42.042 -999 -999 -999 -999 -999
2008-09-30 08:22:20 51°14.667 2°42.044 -999 -999 -999 -999 -999
2008-09-30 08:22:30 51°14.664 2°42.044 -999 -999 -999 -999 -999
2008-09-30 08:22:40 51°14.661 2°42.045 -999 -999 -999 -999 -999
2008-09-30 08:22:50 51°14.659 2°42.045 -999 -999 -999 -999 -999
2008-09-30 08:23:00 51°14.656 2°42.046 -999 -999 -999 -999 -999
2008-09-30 08:23:10 51°14.653 2°42.046 -999 -999 -999 -999 -999
2008-09-30 08:23:20 51°14.651 2°42.047 -999 -999 -999 -999 -999
2008-09-30 08:23:30 51°14.648 2°42.047 -999 -999 -999 -999 -999
2008-09-30 08:23:40 51°14.645 2°42.048 -999 -999 -999 -999 -999
2008-09-30 08:23:50 51°14.643 2°42.049 -999 -999 -999 -999 -999
2008-09-30 08:24:00 51°14.64 2°42.05 -999 -999 -999 -999 -999
2008-09-30 08:24:10 51°14.638 2°42.051 -999 -999 -999 -999 -999
2008-09-30 08:24:20 51°14.635 2°42.052 -999 -999 -999 -999 -999
2008-09-30 08:24:30 51°14.633 2°42.052 -999 -999 -999 -999 -999
2008-09-30 08:24:40 51°14.631 2°42.054 -999 -999 -999 -999 -999
2008-09-30 08:24:50 51°14.628 2°42.054 -999 -999 -999 -999 -999
2008-09-30 08:25:00 51°14.626 2°42.056 -999 -999 -999 -999 -999
2008-09-30 08:25:10 51°14.624 2°42.057 -999 -999 -999 -999 -999
2008-09-30 08:25:20 51°14.622 2°42.057 -999 -999 -999 -999 -999
2008-09-30 08:25:30 51°14.619 2°42.058 -999 -999 -999 -999 -999
2008-09-30 08:25:40 51°14.617 2°42.059 -999 -999 -999 -999 -999
2008-09-30 08:25:50 51°14.615 2°42.06 -999 -999 -999 -999 -999
2008-09-30 08:26:00 51°14.613 2°42.061 -999 -999 -999 -999 -999
2008-09-30 08:26:10 51°14.611 2°42.062 -999 -999 -999 -999 -999
2008-09-30 08:26:20 51°14.608 2°42.062 -999 -999 -999 -999 -999
2008-09-30 08:26:30 51°14.606 2°42.063 -999 -999 -999 -999 -999
2008-09-30 08:26:40 51°14.604 2°42.063 -999 -999 -999 -999 -999
2008-09-30 08:26:50 51°14.601 2°42.064 -999 -999 -999 -999 -999
2008-09-30 08:27:00 51°14.599 2°42.065 -999 -999 -999 -999 -999
2008-09-30 08:27:10 51°14.597 2°42.066 -999 -999 -999 -999 -999
2008-09-30 08:27:20 51°14.595 2°42.068 -999 -999 -999 -999 -999
2008-09-30 08:27:30 51°14.592 2°42.068 -999 -999 -999 -999 -999
2008-09-30 08:27:40 51°14.59 2°42.069 -999 -999 -999 -999 -999
2008-09-30 08:27:50 51°14.588 2°42.07 -999 -999 -999 -999 -999
2008-09-30 08:28:00 51°14.586 2°42.071 -999 -999 -999 -999 -999
2008-09-30 08:28:10 51°14.583 2°42.072 -999 -999 -999 -999 -999
2008-09-30 08:28:20 51°14.581 2°42.072 -999 -999 -999 -999 -999
2008-09-30 08:28:30 51°14.579 2°42.073 -999 -999 -999 -999 -999
2008-09-30 08:28:40 51°14.577 2°42.074 -999 -999 -999 -999 -999
2008-09-30 08:28:50 51°14.575 2°42.074 -999 -999 -999 -999 -999
2008-09-30 08:29:00 51°14.573 2°42.076 -999 -999 -999 -999 -999
2008-09-30 08:29:10 51°14.571 2°42.076 -999 -999 -999 -999 -999
2008-09-30 08:29:20 51°14.569 2°42.077 -999 -999 -999 -999 -999
2008-09-30 08:29:30 51°14.566 2°42.077 -999 -999 -999 -999 -999
2008-09-30 08:29:40 51°14.565 2°42.079 -999 -999 -999 -999 -999
2008-09-30 08:29:50 51°14.562 2°42.079 -999 -999 -999 -999 -999
2008-09-30 08:30:00 51°14.56 2°42.079 -999 -999 -999 -999 -999
2008-09-30 08:30:10 51°14.557 2°42.08 -999 -999 -999 -999 -999
2008-09-30 08:30:20 51°14.555 2°42.081 -999 -999 -999 -999 -999
2008-09-30 08:30:30 51°14.552 2°42.081 -999 -999 -999 -999 -999
2008-09-30 08:30:40 51°14.55 2°42.081 -999 -999 -999 -999 -999
2008-09-30 08:30:50 51°14.547 2°42.082 -999 -999 -999 -999 -999
2008-09-30 08:31:00 51°14.545 2°42.083 -999 -999 -999 -999 -999
2008-09-30 08:31:10 51°14.542 2°42.082 -999 -999 -999 -999 -999
2008-09-30 08:31:20 51°14.539 2°42.083 -999 -999 -999 -999 -999
2008-09-30 08:31:30 51°14.537 2°42.083 -999 -999 -999 -999 -999
2008-09-30 08:31:40 51°14.534 2°42.084 -999 -999 -999 -999 -999
2008-09-30 08:31:50 51°14.532 2°42.084 -999 -999 -999 -999 -999
2008-09-30 08:32:00 51°14.529 2°42.083 -999 -999 -999 -999 -999
2008-09-30 08:32:10 51°14.526 2°42.084 -999 -999 -999 -999 -999
2008-09-30 08:32:20 51°14.524 2°42.083 -999 -999 -999 -999 -999
2008-09-30 08:32:30 51°14.521 2°42.084 -999 -999 -999 -999 -999
2008-09-30 08:32:40 51°14.518 2°42.083 -999 -999 -999 -999 -999
2008-09-30 08:32:50 51°14.516 2°42.083 -999 -999 -999 -999 -999
2008-09-30 08:33:00 51°14.514 2°42.083 -999 -999 -999 -999 -999
2008-09-30 08:33:10 51°14.512 2°42.083 -999 -999 -999 -999 -999
2008-09-30 08:33:20 51°14.51 2°42.084 -999 -999 -999 -999 -999
2008-09-30 08:33:30 51°14.508 2°42.084 -999 -999 -999 -999 -999
2008-09-30 08:33:40 51°14.505 2°42.084 -999 -999 -999 -999 -999
2008-09-30 08:33:50 51°14.503 2°42.085 -999 -999 -999 -999 -999
2008-09-30 08:34:00 51°14.501 2°42.086 -999 -999 -999 -999 -999
2008-09-30 08:34:10 51°14.499 2°42.085 -999 -999 -999 -999 -999
2008-09-30 08:34:20 51°14.497 2°42.086 -999 -999 -999 -999 -999
2008-09-30 08:34:30 51°14.494 2°42.086 -999 -999 -999 -999 -999
2008-09-30 08:34:40 51°14.492 2°42.086 -999 -999 -999 -999 -999
2008-09-30 08:34:50 51°14.49 2°42.087 -999 -999 -999 -999 -999
2008-09-30 08:35:00 51°14.488 2°42.087 -999 -999 -999 -999 -999
2008-09-30 08:35:10 51°14.486 2°42.088 -999 -999 -999 -999 -999
2008-09-30 08:35:20 51°14.483 2°42.089 -999 -999 -999 -999 -999
2008-09-30 08:35:30 51°14.481 2°42.088 -999 -999 -999 -999 -999
2008-09-30 08:35:40 51°14.479 2°42.089 -999 -999 -999 -999 -999
2008-09-30 08:35:50 51°14.477 2°42.089 -999 -999 -999 -999 -999
2008-09-30 08:36:00 51°14.475 2°42.089 -999 -999 -999 -999 -999
2008-09-30 08:36:10 51°14.472 2°42.09 -999 -999 -999 -999 -999
2008-09-30 08:36:20 51°14.47 2°42.09 -999 -999 -999 -999 -999
2008-09-30 08:36:30 51°14.467 2°42.09 -999 -999 -999 -999 -999
2008-09-30 08:36:40 51°14.465 2°42.09 -999 -999 -999 -999 -999
2008-09-30 08:36:50 51°14.463 2°42.09 -999 -999 -999 -999 -999
2008-09-30 08:37:00 51°14.461 2°42.09 -999 -999 -999 -999 -999
2008-09-30 08:37:10 51°14.458 2°42.09 -999 -999 -999 -999 -999
2008-09-30 08:37:20 51°14.455 2°42.089 -999 -999 -999 -999 -999
2008-09-30 08:37:30 51°14.453 2°42.09 -999 -999 -999 -999 -999
2008-09-30 08:37:40 51°14.451 2°42.09 -999 -999 -999 -999 -999
2008-09-30 08:37:50 51°14.448 2°42.09 -999 -999 -999 -999 -999
2008-09-30 08:38:00 51°14.445 2°42.09 -999 -999 -999 -999 -999
2008-09-30 08:38:10 51°14.443 2°42.09 -999 -999 -999 -999 -999
2008-09-30 08:38:20 51°14.441 2°42.09 -999 -999 -999 -999 -999
2008-09-30 08:38:30 51°14.438 2°42.09 -999 -999 -999 -999 -999
2008-09-30 08:38:40 51°14.436 2°42.091 -999 -999 -999 -999 -999
2008-09-30 08:38:50 51°14.434 2°42.091 -999 -999 -999 -999 -999
2008-09-30 08:39:00 51°14.431 2°42.09 -999 -999 -999 -999 -999
2008-09-30 08:39:10 51°14.429 2°42.09 -999 -999 -999 -999 -999
2008-09-30 08:39:20 51°14.427 2°42.09 -999 -999 -999 -999 -999
2008-09-30 08:39:30 51°14.424 2°42.09 -999 -999 -999 -999 -999
2008-09-30 08:39:40 51°14.421 2°42.09 -999 -999 -999 -999 -999
2008-09-30 08:39:50 51°14.419 2°42.09 -999 -999 -999 -999 -999
2008-09-30 08:40:00 51°14.417 2°42.09 -999 -999 -999 -999 -999
2008-09-30 08:40:10 51°14.415 2°42.091 -999 -999 -999 -999 -999
2008-09-30 08:40:20 51°14.413 2°42.09 -999 -999 -999 -999 -999
2008-09-30 08:40:30 51°14.41 2°42.092 -999 -999 -999 -999 -999
2008-09-30 08:40:40 51°14.408 2°42.091 -999 -999 -999 -999 -999
2008-09-30 08:40:50 51°14.406 2°42.092 -999 -999 -999 -999 -999
2008-09-30 08:41:00 51°14.404 2°42.091 -999 -999 -999 -999 -999
2008-09-30 08:41:10 51°14.402 2°42.092 -999 -999 -999 -999 -999
2008-09-30 08:41:20 51°14.4 2°42.091 -999 -999 -999 -999 -999
2008-09-30 08:41:30 51°14.398 2°42.092 -999 -999 -999 -999 -999
2008-09-30 08:41:40 51°14.395 2°42.092 -999 -999 -999 -999 -999
2008-09-30 08:41:50 51°14.394 2°42.092 -999 -999 -999 -999 -999
2008-09-30 08:42:00 51°14.391 2°42.092 -999 -999 -999 -999 -999
2008-09-30 08:42:10 51°14.389 2°42.092 -999 -999 -999 -999 -999
2008-09-30 08:42:20 51°14.387 2°42.093 -999 -999 -999 -999 -999
2008-09-30 08:42:30 51°14.386 2°42.093 -999 -999 -999 -999 -999
2008-09-30 08:42:40 51°14.384 2°42.093 -999 -999 -999 -999 -999
2008-09-30 08:42:50 51°14.382 2°42.093 -999 -999 -999 -999 -999
2008-09-30 08:43:00 51°14.38 2°42.093 -999 -999 -999 -999 -999
2008-09-30 08:43:10 51°14.378 2°42.094 -999 -999 -999 -999 -999
2008-09-30 08:43:20 51°14.375 2°42.093 -999 -999 -999 -999 -999
2008-09-30 08:43:30 51°14.373 2°42.093 -999 -999 -999 -999 -999
2008-09-30 08:43:40 51°14.371 2°42.093 -999 -999 -999 -999 -999
2008-09-30 08:43:50 51°14.368 2°42.093 -999 -999 -999 -999 -999
2008-09-30 08:44:00 51°14.366 2°42.093 -999 -999 -999 -999 -999
2008-09-30 08:44:10 51°14.364 2°42.092 -999 -999 -999 -999 -999
2008-09-30 08:44:20 51°14.362 2°42.093 -999 -999 -999 -999 -999
2008-09-30 08:44:30 51°14.36 2°42.092 -999 -999 -999 -999 -999
2008-09-30 08:44:40 51°14.358 2°42.092 -999 -999 -999 -999 -999
2008-09-30 08:44:50 51°14.355 2°42.092 -999 -999 -999 -999 -999
2008-09-30 08:45:00 51°14.353 2°42.092 -999 -999 -999 -999 -999
2008-09-30 08:45:10 51°14.351 2°42.092 -999 -999 -999 -999 -999
2008-09-30 08:45:20 51°14.349 2°42.092 -999 -999 -999 -999 -999
2008-09-30 08:45:30 51°14.347 2°42.091 -999 -999 -999 -999 -999
2008-09-30 08:45:40 51°14.346 2°42.092 -999 -999 -999 -999 -999
2008-09-30 08:45:50 51°14.344 2°42.091 -999 -999 -999 -999 -999
2008-09-30 08:46:00 51°14.342 2°42.092 -999 -999 -999 -999 -999
2008-09-30 08:46:10 51°14.34 2°42.092 -999 -999 -999 -999 -999
2008-09-30 08:46:20 51°14.338 2°42.092 -999 -999 -999 -999 -999
2008-09-30 08:46:30 51°14.337 2°42.091 -999 -999 -999 -999 -999
2008-09-30 08:46:40 51°14.335 2°42.091 -999 -999 -999 -999 -999
2008-09-30 08:46:50 51°14.333 2°42.092 -999 -999 -999 -999 -999
2008-09-30 08:47:00 51°14.331 2°42.091 -999 -999 -999 -999 -999
2008-09-30 08:47:10 51°14.329 2°42.092 -999 -999 -999 -999 -999
2008-09-30 08:47:20 51°14.326 2°42.091 -999 -999 -999 -999 -999
2008-09-30 08:47:30 51°14.324 2°42.09 -999 -999 -999 -999 -999
2008-09-30 08:47:40 51°14.322 2°42.09 -999 -999 -999 -999 -999
2008-09-30 08:47:50 51°14.32 2°42.09 -999 -999 -999 -999 -999
2008-09-30 08:48:00 51°14.318 2°42.09 -999 -999 -999 -999 -999
2008-09-30 08:48:10 51°14.316 2°42.089 -999 -999 -999 -999 -999
2008-09-30 08:48:20 51°14.313 2°42.089 -999 -999 -999 -999 -999
2008-09-30 08:48:30 51°14.311 2°42.089 -999 -999 -999 -999 -999
2008-09-30 08:48:40 51°14.309 2°42.088 -999 -999 -999 -999 -999
2008-09-30 08:48:50 51°14.307 2°42.088 -999 -999 -999 -999 -999
2008-09-30 08:49:00 51°14.305 2°42.087 -999 -999 -999 -999 -999
2008-09-30 08:49:10 51°14.303 2°42.087 -999 -999 -999 -999 -999
2008-09-30 08:49:20 51°14.301 2°42.087 -999 -999 -999 -999 -999
2008-09-30 08:49:30 51°14.298 2°42.087 -999 -999 -999 -999 -999
2008-09-30 08:49:40 51°14.296 2°42.087 -999 -999 -999 -999 -999
2008-09-30 08:49:50 51°14.294 2°42.086 -999 -999 -999 -999 -999
2008-09-30 08:50:00 51°14.291 2°42.087 -999 -999 -999 -999 -999
2008-09-30 08:50:10 51°14.289 2°42.086 -999 -999 -999 -999 -999
2008-09-30 08:50:20 51°14.286 2°42.086 -999 -999 -999 -999 -999
2008-09-30 08:50:30 51°14.284 2°42.086 -999 -999 -999 -999 -999
2008-09-30 08:50:40 51°14.281 2°42.086 -999 -999 -999 -999 -999
2008-09-30 08:50:50 51°14.279 2°42.086 -999 -999 -999 -999 -999
2008-09-30 08:51:00 51°14.276 2°42.086 -999 -999 -999 -999 -999
2008-09-30 08:51:10 51°14.274 2°42.084 -999 -999 -999 -999 -999
2008-09-30 08:51:20 51°14.271 2°42.084 -999 -999 -999 -999 -999
2008-09-30 08:51:30 51°14.268 2°42.084 -999 -999 -999 -999 -999
2008-09-30 08:51:40 51°14.266 2°42.083 -999 -999 -999 -999 -999
2008-09-30 08:51:50 51°14.263 2°42.084 -999 -999 -999 -999 -999
2008-09-30 08:52:00 51°14.261 2°42.084 -999 -999 -999 -999 -999
2008-09-30 08:52:10 51°14.258 2°42.083 -999 -999 -999 -999 -999
2008-09-30 08:52:20 51°14.255 2°42.083 -999 -999 -999 -999 -999
2008-09-30 08:52:30 51°14.253 2°42.083 -999 -999 -999 -999 -999
2008-09-30 08:52:40 51°14.25 2°42.082 -999 -999 -999 -999 -999
2008-09-30 08:52:50 51°14.247 2°42.081 -999 -999 -999 -999 -999
2008-09-30 08:53:00 51°14.245 2°42.082 -999 -999 -999 -999 -999
2008-09-30 08:53:10 51°14.242 2°42.081 -999 -999 -999 -999 -999
2008-09-30 08:53:20 51°14.24 2°42.081 -999 -999 -999 -999 -999
2008-09-30 08:53:30 51°14.237 2°42.08 -999 -999 -999 -999 -999
2008-09-30 08:53:40 51°14.235 2°42.08 -999 -999 -999 -999 -999
2008-09-30 08:53:50 51°14.233 2°42.079 -999 -999 -999 -999 -999
2008-09-30 08:54:00 51°14.23 2°42.078 -999 -999 -999 -999 -999
2008-09-30 08:54:10 51°14.228 2°42.079 -999 -999 -999 -999 -999
2008-09-30 08:54:20 51°14.226 2°42.078 -999 -999 -999 -999 -999
2008-09-30 08:54:30 51°14.223 2°42.078 -999 -999 -999 -999 -999
2008-09-30 08:54:40 51°14.221 2°42.078 -999 -999 -999 -999 -999
2008-09-30 08:54:50 51°14.219 2°42.078 -999 -999 -999 -999 -999
2008-09-30 08:55:00 51°14.216 2°42.078 -999 -999 -999 -999 -999
2008-09-30 08:55:10 51°14.214 2°42.078 -999 -999 -999 -999 -999
2008-09-30 08:55:20 51°14.212 2°42.078 -999 -999 -999 -999 -999
2008-09-30 08:55:30 51°14.21 2°42.078 -999 -999 -999 -999 -999
2008-09-30 08:55:40 51°14.208 2°42.078 -999 -999 -999 -999 -999
2008-09-30 08:55:50 51°14.206 2°42.079 -999 -999 -999 -999 -999
2008-09-30 08:56:00 51°14.204 2°42.079 -999 -999 -999 -999 -999
2008-09-30 08:56:10 51°14.202 2°42.08 -999 -999 -999 -999 -999
2008-09-30 08:56:20 51°14.199 2°42.08 -999 -999 -999 -999 -999
2008-09-30 08:56:30 51°14.197 2°42.081 -999 -999 -999 -999 -999
2008-09-30 08:56:40 51°14.195 2°42.081 -999 -999 -999 -999 -999
2008-09-30 08:56:50 51°14.192 2°42.081 -999 -999 -999 -999 -999
2008-09-30 08:57:00 51°14.19 2°42.082 -999 -999 -999 -999 -999
2008-09-30 08:57:10 51°14.187 2°42.082 -999 -999 -999 -999 -999
2008-09-30 08:57:20 51°14.185 2°42.083 -999 -999 -999 -999 -999
2008-09-30 08:57:30 51°14.183 2°42.082 -999 -999 -999 -999 -999
2008-09-30 08:57:40 51°14.181 2°42.082 -999 -999 -999 -999 -999
2008-09-30 08:57:50 51°14.178 2°42.083 -999 -999 -999 -999 -999
2008-09-30 08:58:00 51°14.176 2°42.082 -999 -999 -999 -999 -999
2008-09-30 08:58:10 51°14.174 2°42.082 -999 -999 -999 -999 -999
2008-09-30 08:58:20 51°14.171 2°42.082 -999 -999 -999 -999 -999
2008-09-30 08:58:30 51°14.168 2°42.082 -999 -999 -999 -999 -999
2008-09-30 08:58:40 51°14.165 2°42.083 -999 -999 -999 -999 -999
2008-09-30 08:58:50 51°14.162 2°42.083 -999 -999 -999 -999 -999
2008-09-30 08:59:00 51°14.16 2°42.083 -999 -999 -999 -999 -999
2008-09-30 08:59:10 51°14.157 2°42.083 -999 -999 -999 -999 -999
2008-09-30 08:59:20 51°14.154 2°42.084 -999 -999 -999 -999 -999
2008-09-30 08:59:30 51°14.152 2°42.084 -999 -999 -999 -999 -999
2008-09-30 08:59:40 51°14.149 2°42.084 -999 -999 -999 -999 -999
2008-09-30 08:59:50 51°14.146 2°42.084 -999 -999 -999 -999 -999
2008-09-30 09:00:00 51°14.144 2°42.084 -999 -999 -999 -999 -999
2008-09-30 09:00:10 51°14.141 2°42.085 -999 -999 -999 -999 -999
2008-09-30 09:00:20 51°14.138 2°42.084 -999 -999 -999 -999 -999
2008-09-30 09:00:30 51°14.136 2°42.084 -999 -999 -999 -999 -999
2008-09-30 09:00:40 51°14.133 2°42.084 -999 -999 -999 -999 -999
2008-09-30 09:00:50 51°14.13 2°42.084 -999 -999 -999 -999 -999
2008-09-30 09:01:00 51°14.128 2°42.084 -999 -999 -999 -999 -999
2008-09-30 09:01:10 51°14.125 2°42.084 -999 -999 -999 -999 -999
2008-09-30 09:01:20 51°14.123 2°42.084 -999 -999 -999 -999 -999
2008-09-30 09:01:30 51°14.12 2°42.085 -999 -999 -999 -999 -999
2008-09-30 09:01:40 51°14.117 2°42.085 -999 -999 -999 -999 -999
2008-09-30 09:01:50 51°14.115 2°42.084 -999 -999 -999 -999 -999
2008-09-30 09:02:00 51°14.113 2°42.085 -999 -999 -999 -999 -999
2008-09-30 09:02:10 51°14.11 2°42.085 -999 -999 -999 -999 -999
2008-09-30 09:02:20 51°14.108 2°42.085 -999 -999 -999 -999 -999
2008-09-30 09:02:30 51°14.106 2°42.085 -999 -999 -999 -999 -999
2008-09-30 09:02:40 51°14.103 2°42.086 -999 -999 -999 -999 -999
2008-09-30 09:02:50 51°14.101 2°42.085 -999 -999 -999 -999 -999
2008-09-30 09:03:00 51°14.099 2°42.086 -999 -999 -999 -999 -999
2008-09-30 09:03:10 51°14.097 2°42.086 -999 -999 -999 -999 -999
2008-09-30 09:03:20 51°14.094 2°42.086 -999 -999 -999 -999 -999
2008-09-30 09:03:30 51°14.091 2°42.087 -999 -999 -999 -999 -999
2008-09-30 09:03:40 51°14.089 2°42.087 -999 -999 -999 -999 -999
2008-09-30 09:03:50 51°14.086 2°42.088 -999 -999 -999 -999 -999
2008-09-30 09:04:00 51°14.084 2°42.089 -999 -999 -999 -999 -999
2008-09-30 09:04:10 51°14.081 2°42.09 -999 -999 -999 -999 -999
2008-09-30 09:04:20 51°14.079 2°42.09 -999 -999 -999 -999 -999
2008-09-30 09:04:30 51°14.076 2°42.091 -999 -999 -999 -999 -999
2008-09-30 09:04:40 51°14.073 2°42.09 -999 -999 -999 -999 -999
2008-09-30 09:04:50 51°14.071 2°42.091 -999 -999 -999 -999 -999
2008-09-30 09:05:00 51°14.069 2°42.091 -999 -999 -999 -999 -999
2008-09-30 09:05:10 51°14.067 2°42.092 -999 -999 -999 -999 -999
2008-09-30 09:05:20 51°14.064 2°42.093 -999 -999 -999 -999 -999
2008-09-30 09:05:30 51°14.062 2°42.093 -999 -999 -999 -999 -999
2008-09-30 09:05:40 51°14.06 2°42.093 -999 -999 -999 -999 -999
2008-09-30 09:05:50 51°14.058 2°42.093 -999 -999 -999 -999 -999
2008-09-30 09:06:00 51°14.055 2°42.093 -999 -999 -999 -999 -999
2008-09-30 09:06:10 51°14.054 2°42.095 -999 -999 -999 -999 -999
2008-09-30 09:06:20 51°14.051 2°42.095 -999 -999 -999 -999 -999
2008-09-30 09:06:30 51°14.049 2°42.095 -999 -999 -999 -999 -999
2008-09-30 09:06:40 51°14.047 2°42.096 -999 -999 -999 -999 -999
2008-09-30 09:06:50 51°14.045 2°42.096 -999 -999 -999 -999 -999
2008-09-30 09:07:00 51°14.043 2°42.097 -999 -999 -999 -999 -999
2008-09-30 09:07:10 51°14.04 2°42.097 -999 -999 -999 -999 -999
2008-09-30 09:07:20 51°14.038 2°42.098 -999 -999 -999 -999 -999
2008-09-30 09:07:30 51°14.036 2°42.098 -999 -999 -999 -999 -999
2008-09-30 09:07:40 51°14.034 2°42.098 -999 -999 -999 -999 -999
2008-09-30 09:07:50 51°14.032 2°42.099 -999 -999 -999 -999 -999
2008-09-30 09:08:00 51°14.029 2°42.099 -999 -999 -999 -999 -999
2008-09-30 09:08:10 51°14.027 2°42.1 -999 -999 -999 -999 -999
2008-09-30 09:08:20 51°14.025 2°42.099 -999 -999 -999 -999 -999
2008-09-30 09:08:30 51°14.022 2°42.1 -999 -999 -999 -999 -999
2008-09-30 09:08:40 51°14.02 2°42.1 -999 -999 -999 -999 -999
2008-09-30 09:08:50 51°14.018 2°42.101 -999 -999 -999 -999 -999
2008-09-30 09:09:00 51°14.016 2°42.101 -999 -999 -999 -999 -999
2008-09-30 09:09:10 51°14.014 2°42.102 -999 -999 -999 -999 -999
2008-09-30 09:09:20 51°14.011 2°42.102 -999 -999 -999 -999 -999
2008-09-30 09:09:30 51°14.01 2°42.102 -999 -999 -999 -999 -999
2008-09-30 09:09:40 51°14.007 2°42.103 -999 -999 -999 -999 -999
2008-09-30 09:09:50 51°14.004 2°42.103 -999 -999 -999 -999 -999
2008-09-30 09:10:00 51°14.002 2°42.104 -999 -999 -999 -999 -999
2008-09-30 09:10:10 51°14 2°42.104 -999 -999 -999 -999 -999
2008-09-30 09:10:20 51°13.997 2°42.104 -999 -999 -999 -999 -999
2008-09-30 09:10:30 51°13.994 2°42.104 -999 -999 -999 -999 -999
2008-09-30 09:10:40 51°13.992 2°42.104 -999 -999 -999 -999 -999
2008-09-30 09:10:50 51°13.989 2°42.105 -999 -999 -999 -999 -999
2008-09-30 09:11:00 51°13.987 2°42.105 -999 -999 -999 -999 -999
2008-09-30 09:11:10 51°13.984 2°42.105 -999 -999 -999 -999 -999
2008-09-30 09:11:20 51°13.981 2°42.105 -999 -999 -999 -999 -999